レモン-パンスターズ彗星

P/2020 O1 ( Lemmon-PanSTARRS )

English version
Home page
Updated on October 9, 2020

---------------------------------------------------------------------

・ プロフィール

発見日 2020年7月19日、20日
発見光度 20.2等、20.6等
発見者 K. W. Wierzchos (Mt. Lemmon Survey), Pan-STARRS 1 telescope (Haleakala)

・ 軌道要素

Epoch 2020 Apr. 21.0 TT = JDT 2458960.5
T 2020 May 4.14548 TT                                   Rudenko
q   2.3293908            (2000.0)            P               Q
n   0.22892324     Peri.  104.91738     +0.18983433     +0.98179570
a   2.6465258      Node   176.00945     -0.93216363     +0.18225604
e   0.1198307      Incl.    5.22250     -0.30827567     +0.05347836
P   4.31
From 75 observations 2020 June 27-Sept. 14, mean residual 0".4.

・ 光度変化

        m1 = 15.5 + 5 logΔ + 10.0 log r

---------------------------------------------------------------------

軌道要素はM.P.E.C. 2020-S188に掲載されたものです。
光度グラフはComet for Windowsで作成したものです。

---------------------------------------------------------------------

Copyright(C) Seiichi Yoshida (comet@aerith.net). All rights reserved.